Погода в Джордже

ЮАР     33°57′47″S   22°26′56″E
темп.,
°C
ветер,
м/с
пор.,
м/с
влажн.,
%
обл.,
%
осадки,
мм/ч
давл.,
гПа
погр.,
м
17 августа, ср
ср1723:00+12с228593 0.0 101370
02:00+12ссв227475 0.0 101180
05:00+12ссв11624 0.0 101062
08:00+13сз22535 0.0 101082
11:00+17зсз24493 0.0 1009399
14:00+19зсз46465 0.0 1007691
17:00+18з5857100 0.0 100799
20:00+16сз586218 0.1 1009147
18 августа, чт
чт1823:00+14з457560 0.2 1011181
02:00+12зсз588062 0.4 1012439
05:00+12зсз467614 0.0 1013522
08:00+12с22745 0.1 1014125
11:00+15з466196 0.0 1015946
14:00+16з686098 0.0 1014711
17:00+15з577980 0.4 1015429
20:00+14ю5987100 9.6 1018778
19 августа, пт
пт1923:00+13юз458329 3.8 1020392
02:00+13зюз678398 6.0 1021734
05:00+12з6108377 1.1 1021737
08:00+11зсз57760 1.1 1022634
11:00+14зюз56620 0.0 1022977
14:00+16юз46550 0.0 1019678
17:00+16зюз58625 0.0 1018454
20:00+14сз6105896 0.0 1019250
20 августа, сб
сб2023:00+12зюз111784100 1.3 10201594
02:00+11з14227699 2.9 10221909
05:00+10з121979100 0.7 10231782
08:00+10з9167888 1.9 10271541
11:00+11з81370100 0.5 10281623
14:00+12зюз9126580 0.9 10271608
17:00+12з586385 0.1 10271027
20:00+12з466462 0.1 1029927
21 августа, вс
вс2123:00+11зсз46660 0.0 1028605
02:00+10ссз336776 0.0 1027111
05:00+10с336372 0.0 1026107
08:00+11ссз34610 0.0 1025122
11:00+16юз23510 0.0 1025255
14:00+16ююз33550 0.0 1022444
17:00+13ююз33730 0.0 1023289
20:00+13сз13807 0.0 1025361